[[{"header":{"parameterUnit":"m.s-1","parameterCategory":1,"la1":30.2992,"la2":30.254,"lo1":-89.0895,"lo2":-89.0443,"dy":0.0025,"dx":0.0025,"nx":19,"ny":19,"refTime":"2026-05-02T09:00:00:Z","depth":0,"parameterNumber":2,"parameterNumberName":"U-component_of_WINDS"},"data":[0,0,0,-0.5886,-0.5887,-0.598,-0.598,-0.6101,-0.6102,0,0,0,0,0,0,0,0,0,0,0,-0.5859,-0.586,-0.5885,-0.5888,-0.598,-0.598,-0.6101,-0.6102,0,0,0,0,0,0,0,0,0,0,0,-0.5859,-0.586,-0.5861,-0.5888,-0.5979,-0.598,-0.6101,-0.603,0,0,0,0,0,0,0,0,0,0,-0.594,-0.5917,-0.586,-0.5861,-0.5889,-0.5979,-0.598,-0.6027,-0.6035,-0.606,0,-0.6083,0,-0.6094,-0.611,-0.6111,0,0,0,-0.5887,-0.591,-0.5934,-0.5861,-0.5889,-0.5979,-0.5938,-0.6031,-0.604,-0.6071,-0.6084,-0.6089,-0.6096,-0.6111,-0.6112,-0.626,-0.626,0,0,-0.5882,-0.5877,-0.5928,-0.594,-0.5925,-0.5935,-0.5941,-0.6036,-0.6051,-0.6085,-0.6092,-0.6098,-0.6112,-0.6113,-0.6259,-0.626,0,0,0,-0.5868,-0.5873,-0.5894,-0.5935,-0.5951,-0.5938,-0.5944,-0.6047,-0.6054,-0.6093,-0.61,-0.6113,-0.6114,-0.6258,-0.6259,-0.6289,0,0,0,-0.5865,-0.5865,-0.5892,-0.589,-0.5949,-0.6,-0.5953,-0.6048,-0.6059,-0.6099,-0.6113,-0.6115,-0.6257,-0.6259,-0.6287,-0.6305,0,0,0,-0.5853,-0.5863,-0.5877,-0.5889,-0.5929,-0.5999,-0.6011,-0.605,-0.6063,-0.6111,-0.6116,-0.6257,-0.6258,-0.6285,-0.6302,-0.6343,0,0,0,-0.5839,-0.5902,-0.5877,-0.5951,-0.5928,-0.6016,-0.6011,-0.6077,-0.6121,-0.6113,-0.6257,-0.6259,-0.6284,-0.6299,-0.6341,-0.6379,-0.6393,0,0,-0.5916,-0.5912,-0.5955,-0.5935,-0.6026,-0.6002,-0.6098,-0.6145,-0.6155,-0.6224,-0.6228,-0.6288,-0.6301,-0.6343,-0.6475,-0.6486,0,0,0,-0.5978,-0.6009,-0.6035,-0.6076,-0.6112,-0.6146,-0.6177,-0.6195,-0.6254,-0.6189,-0.6313,-0.6322,-0.6346,-0.6365,-0.6375,-0.6397,-0.6267,-0.6267,-0.6266,-0.6081,-0.6089,-0.6162,-0.6182,-0.6222,-0.6254,-0.6288,-0.6317,-0.6314,-0.6343,-0.6365,-0.6443,-0.6465,-0.6472,-0.6495,-0.6384,-0.6384,-0.6384,-0.6384,-0.6196,-0.6242,-0.6236,-0.6305,-0.6313,-0.6372,-0.6405,-0.6401,-0.6457,-0.6428,-0.645,-0.6419,-0.6485,-0.6505,-0.6386,-0.6386,-0.6386,-0.6385,-0.6385,-0.6265,-0.6289,-0.6308,-0.6369,-0.6415,-0.6433,-0.6487,-0.6493,-0.6499,-0.652,-0.6544,-0.6544,-0.6545,-0.6531,-0.6531,-0.6531,-0.6532,-0.6532,-0.6532,-0.6331,-0.6351,-0.6396,-0.6439,-0.6466,-0.6503,-0.6535,-0.6563,-0.6595,-0.6596,-0.6596,-0.6591,-0.6488,-0.6464,-0.6536,-0.6536,-0.6535,-0.6535,-0.6534,-0.6448,-0.6422,-0.6491,-0.6518,-0.657,-0.6616,-0.6621,-0.6677,-0.6701,-0.6728,-0.6717,-0.664,-0.6636,-0.6629,-0.6608,-0.6714,-0.6714,-0.6714,-0.6714,-0.6508,-0.6506,-0.6578,-0.6621,-0.6665,-0.6677,-0.6755,-0.6781,-0.6803,-0.6819,-0.6804,-0.6776,-0.6768,-0.677,-0.6759,-0.674,-0.6877,-0.6877,-0.6877,-0.6581,-0.6583,-0.6649,-0.6669,-0.671,-0.6745,-0.6819,-0.687,-0.689,-0.6884,-0.6831,-0.6824,-0.678,-0.6765,-0.676,-0.6743,-0.6708,0,0]},{"header":{"parameterUnit":"m.s-1","parameterCategory":1,"la1":30.2992,"la2":30.254,"lo1":-89.0895,"lo2":-89.0443,"dy":0.0025,"dx":0.0025,"nx":19,"ny":19,"refTime":"2026-05-02T09:00:00:Z","depth":0,"parameterNumber":3,"parameterNumberName":"V-component_of_WINDS"},"data":[0,0,0,-7.803,-7.8034,-7.8222,-7.8223,-7.8472,-7.8475,0,0,0,0,0,0,0,0,0,0,0,-7.7984,-7.7986,-7.8029,-7.8035,-7.8222,-7.8223,-7.8472,-7.8475,0,0,0,0,0,0,0,0,0,0,0,-7.7983,-7.7986,-7.7988,-7.8035,-7.8222,-7.8223,-7.8471,-7.8325,0,0,0,0,0,0,0,0,0,0,-7.814,-7.811,-7.7985,-7.7989,-7.8036,-7.8222,-7.8223,-7.8318,-7.8334,-7.8393,0,-7.8452,0,-7.8468,-7.8493,-7.8493,0,0,0,-7.8025,-7.8096,-7.8138,-7.7989,-7.8038,-7.8222,-7.8135,-7.8327,-7.8345,-7.8415,-7.8455,-7.8464,-7.8472,-7.8494,-7.8496,-7.8874,-7.8876,0,0,-7.8015,-7.8022,-7.8126,-7.8151,-7.8128,-7.8129,-7.8141,-7.8338,-7.8381,-7.8456,-7.8469,-7.8476,-7.8496,-7.8498,-7.8872,-7.8874,0,0,0,-7.7991,-7.8016,-7.8052,-7.8141,-7.8175,-7.8135,-7.8148,-7.8372,-7.8383,-7.8472,-7.8479,-7.8498,-7.8501,-7.8869,-7.8872,-7.899,0,0,0,-7.7985,-7.8002,-7.8048,-7.8055,-7.8171,-7.8277,-7.8178,-7.837,-7.8392,-7.8478,-7.8498,-7.8503,-7.8867,-7.8871,-7.8982,-7.9044,0,0,0,-7.7968,-7.7999,-7.8031,-7.8055,-7.8136,-7.8273,-7.8296,-7.8374,-7.8397,-7.8494,-7.8504,-7.8865,-7.887,-7.8974,-7.9032,-7.9147,0,0,0,-7.7952,-7.813,-7.8033,-7.8234,-7.8135,-7.8346,-7.8295,-7.845,-7.8547,-7.8499,-7.8867,-7.8872,-7.8972,-7.9024,-7.9139,-7.9246,-7.9291,0,0,-7.818,-7.8158,-7.8276,-7.8194,-7.8426,-7.8317,-7.8563,-7.8643,-7.8642,-7.8795,-7.8804,-7.8985,-7.9031,-7.9145,-7.9542,-7.9578,0,0,0,-7.835,-7.8435,-7.8495,-7.8591,-7.8659,-7.8721,-7.8763,-7.8792,-7.8923,-7.8724,-7.9057,-7.9084,-7.915,-7.9201,-7.9232,-7.9288,-7.8896,-7.8895,-7.8895,-7.8684,-7.8678,-7.8873,-7.889,-7.8982,-7.9025,-7.9098,-7.9144,-7.9108,-7.9186,-7.9232,-7.9474,-7.9534,-7.9557,-7.9616,-7.9287,-7.9288,-7.9288,-7.9288,-7.9019,-7.9138,-7.9089,-7.9261,-7.9252,-7.9393,-7.944,-7.941,-7.9538,-7.9439,-7.9497,-7.9389,-7.9597,-7.9648,-7.9297,-7.9296,-7.9295,-7.9294,-7.9293,-7.9237,-7.9293,-7.9329,-7.9468,-7.9574,-7.9582,-7.971,-7.9695,-7.9682,-7.974,-7.9786,-7.9784,-7.9781,-7.9763,-7.9764,-7.9765,-7.9766,-7.9766,-7.9767,-7.945,-7.9486,-7.9598,-7.9687,-7.9747,-7.9823,-7.9867,-7.9924,-7.9983,-7.9962,-7.9962,-7.9918,-7.9619,-7.9544,-7.978,-7.9777,-7.9776,-7.9775,-7.9774,-7.9792,-7.9713,-7.9886,-7.9947,-8.0049,-8.0155,-8.0136,-8.0253,-8.0298,-8.0361,-8.0304,-8.0085,-8.0059,-8.0035,-7.9973,-8.0305,-8.0305,-8.0305,-8.0305,-7.9977,-7.9964,-8.0138,-8.0236,-8.0329,-8.033,-8.0521,-8.0557,-8.058,-8.0606,-8.0556,-8.0472,-8.0448,-8.0436,-8.0403,-8.0345,-8.0764,-8.0765,-8.0765,-8.0188,-8.0183,-8.0351,-8.0378,-8.0457,-8.0524,-8.0704,-8.0814,-8.0822,-8.0784,-8.0626,-8.0607,-8.0472,-8.0429,-8.0386,-8.0335,-8.0228,0,0]}]]